Home   Weather   Fairfax   Past weeks
Flag for USA

Past Weather in Fairfax, Virginia, USA — Yesterday and Last 2 Weeks

Now
45 °F

Clear.


Feels Like: 43 °F
Forecast: 64 / 40 °F
Wind: 5 mph from North

Location: Washington-Dulles International Airport

Current Time: Oct 19, 2019 at 12:59:04 am

Latest Report: Oct 18, 2019 at 11:52 pm


Visibility: 10 mi

Pressure: 30.06 "Hg

Humidity: 68%

Dew Point: 35 °F

Location of FairfaxLocation

Past Weather in Fairfax — Graph

°F

Fairfax Temperature Yesterday

Maximum temperature yesterday: 63 °F (at 2:52 pm)
Minimum temperature yesterday: 45 °F (at 8:52 pm)
Average temperature yesterday: 53 °F

High & Low Weather Summary for the Past Weeks

 TemperatureHumidityPressure
High79 °F (Oct 7, 1:52 pm)100% (Oct 16, 1:29 pm)30.43 "Hg (Oct 16, 1:29 pm)
Low40 °F (Oct 14, 6:53 am)24% (Oct 14, 2:52 pm)29.54 "Hg (Oct 16, 3:52 pm)
Average60 °F63%30.07 "Hg
* Reported Oct 3 11:52 pm — Oct 18 11:52 pm, Fairfax. Weather by CustomWeather, © 2019

Note: Actual official high and low records may vary slightly from our data, if they occured in-between our weather recording intervals... More about our weather records

Advertising

Fairfax Weather History for the Previous 24 Hours

Scroll right to see more
 ConditionsComfort  
Time TempWeatherWind HumidityBarometerVisibility
11:52 pm
Fri, Oct 18
45 °FClear.5 mph68%30.06 "Hg10 mi
10:52 pm51 °FClear.8 mph56%30.06 "Hg10 mi
9:52 pm45 °FClear.No wind71%30.06 "Hg10 mi
8:52 pm45 °FClear.No wind68%30.06 "Hg10 mi
7:52 pm51 °FClear.No wind54%30.04 "Hg10 mi
6:52 pm56 °FPassing clouds.7 mph46%30.01 "Hg10 mi
5:52 pm60 °FPassing clouds.10 mph39%29.99 "Hg10 mi
4:52 pm62 °FSunny.14 mph35%29.97 "Hg10 mi
3:52 pm63 °FSunny.17 mph33%29.96 "Hg10 mi
2:52 pm63 °FSunny.13 mph34%29.95 "Hg10 mi
1:52 pm61 °FPassing clouds.20 mph38%29.98 "Hg10 mi
12:52 pm59 °FPassing clouds.9 mph41%29.98 "Hg10 mi
11:52 am58 °FPassing clouds.16 mph43%29.98 "Hg10 mi
10:52 am56 °FPassing clouds.21 mph46%29.98 "Hg10 mi
9:52 am53 °FPassing clouds.18 mph51%29.98 "Hg10 mi
8:52 am50 °FSunny.10 mph57%29.97 "Hg10 mi
7:52 am46 °FSunny.8 mph63%29.95 "Hg10 mi
6:52 am47 °FClear.14 mph61%29.93 "Hg10 mi
5:52 am48 °FPassing clouds.13 mph59%29.91 "Hg10 mi
4:52 am48 °FPassing clouds.13 mph59%29.88 "Hg10 mi
3:52 am49 °FPassing clouds.12 mph55%29.87 "Hg10 mi
2:52 am49 °FPassing clouds.13 mph55%29.87 "Hg10 mi
1:52 am50 °FPassing clouds.7 mph50%29.86 "Hg10 mi
12:52 am50 °FPassing clouds.16 mph50%29.85 "Hg10 mi
Weather by CustomWeather, © 2019

See weather overview